EW1552 Weather Reports


time (UTC)temp
F
wind
direction
speed
knots
gust
knots
rain 1hr
in
rain 24hr
in
rain mn
in
humidity
%
barometer
mb
20260508053733 64 339 2.6 7.8 0.00 0.00 0.00 39 1015.2
20260508052749 64 338 3.5 7.0 0.00 0.00 0.00 39 1015.2
20260508051759 65 322 1.7 6.1 0.00 0.00 0.00 36 1015.2
20260508045620 65 300 2.6 8.7 0.00 0.00 0.00 34 1015.0
20260508044638 65 325 3.5 12.2 0.00 0.00 0.00 38 1015.0
20260508042444 65 290 5.2 11.3 0.00 0.00 0.00 38 1014.7
20260508041501 65 304 5.2 9.6 0.00 0.00 0.00 38 1014.7
20260508040517 66 300 6.1 12.2 0.00 0.00 0.00 36 1014.5
20260508035455 66 281 7.0 12.2 0.00 0.00 0.00 35 1014.4
20260508034444 66 303 7.0 11.3 0.00 0.00 0.00 34 1014.3
20260508033413 67 292 4.3 9.6 0.00 0.00 0.00 33 1014.1
20260508032407 67 265 3.5 9.6 0.00 0.00 0.00 31 1014.0
20260508031418 67 263 7.0 13.9 0.00 0.00 0.00 29 1013.9
20260508030402 68 275 6.1 13.9 0.00 0.00 0.00 27 1013.9
20260508025403 68 271 6.1 15.6 0.00 0.00 0.00 26 1014.0
20260508024405 69 281 8.7 15.6 0.00 0.00 0.00 24 1013.9
20260508023331 70 302 7.0 12.2 0.00 0.00 0.00 23 1013.9
20260508022354 71 243 6.1 12.2 0.00 0.00 0.00 21 1013.8
20260508021323 71 256 6.1 13.9 0.00 0.00 0.00 20 1013.8
20260508015157 72 285 8.7 13.9 0.00 0.00 0.00 19 1013.8
20260508014130 72 295 9.6 14.8 0.00 0.00 0.00 20 1013.8
20260508013125 72 316 11.3 17.4 0.00 0.00 0.00 23 1013.7
20260508012136 72 315 11.3 23.5 0.00 0.00 0.00 20 1013.8
20260508011145 72 294 13.0 23.5 0.00 0.00 0.00 19 1013.9
20260508010115 72 286 12.2 20.9 0.00 0.00 0.00 19 1013.9
20260508005053 72 283 11.3 19.1 0.00 0.00 0.00 21 1013.8
20260508004058 72 286 10.4 21.7 0.00 0.00 0.00 24 1014.0
20260508003057 72 259 13.0 21.7 0.00 0.00 0.00 21 1014.0
20260508002032 72 307 12.2 20.9 0.00 0.00 0.00 20 1013.9
20260508001023 72 267 12.2 20.0 0.00 0.00 0.00 23 1013.9
20260507235955 72 285 12.2 20.0 0.00 0.00 0.00 22 1014.1
20260507234924 73 281 12.2 20.9 0.00 0.00 0.00 18 1013.9
20260507233850 73 277 13.0 22.6 0.00 0.00 0.00 17 1014.0
20260507232841 72 267 13.9 25.2 0.00 0.00 0.00 20 1014.1
20260507231856 72 292 14.8 25.2 0.00 0.00 0.00 19 1014.4
20260507230823 72 288 14.8 24.3 0.00 0.00 0.00 20 1014.4
20260507223608 71 263 12.2 21.7 0.00 0.00 0.00 28 1014.4
20260507221426 72 264 11.3 20.0 0.00 0.00 0.00 28 1014.8
20260507220417 71 298 13.0 20.0 0.00 0.00 0.00 30 1014.8
20260507215359 71 285 13.0 22.6 0.00 0.00 0.00 30 1015.0
20260507214341 71 242 13.0 22.6 0.00 0.00 0.00 28 1015.2
20260507212200 71 283 13.0 24.3 0.00 0.00 0.00 31 1015.4
20260507210000 70 258 10.4 20.0 0.00 0.00 0.00 33 1015.6
20260507205016 70 262 10.4 19.1 0.00 0.00 0.00 31 1015.7
20260507204015 69 251 11.3 19.1 0.00 0.00 0.00 33 1015.6
20260507203022 69 269 11.3 25.2 0.00 0.00 0.00 38 1015.8
20260507202034 68 259 13.9 25.2 0.00 0.00 0.00 37 1015.7
20260507201008 67 292 13.9 26.1 0.00 0.00 0.00 39 1016.0
20260507195944 67 259 14.8 26.1 0.00 0.00 0.00 39 1016.0
20260507194937 66 276 17.4 26.1 0.00 0.00 0.00 37 1016.1
20260507193909 66 275 15.6 24.3 0.00 0.00 0.00 40 1016.3
20260507192911 66 286 13.0 24.3 0.00 0.00 0.00 42 1016.4
20260507191928 65 287 12.2 19.1 0.00 0.00 0.00 43 1016.6
20260507190930 65 285 13.0 20.9 0.00 0.00 0.00 45 1016.7
20260507185936 64 254 13.0 23.5 0.00 0.00 0.00 44 1016.8
20260507184958 64 296 12.2 23.5 0.00 0.00 0.00 45 1016.9
20260507182736 63 296 10.4 20.9 0.00 0.00 0.00 47 1017.1
20260507181740 63 281 10.4 20.9 0.00 0.00 0.00 49 1017.1
20260507180730 62 272 10.4 18.2 0.00 0.00 0.00 53 1017.3
20260507173532 60 304 12.2 20.0 0.00 0.00 0.00 57 1017.6
20260507172527 60 271 11.3 19.1 0.00 0.00 0.00 58 1017.7
20260507171521 59 284 11.3 20.9 0.00 0.00 0.00 60 1017.9
20260507165324 58 254 13.0 23.5 0.00 0.00 0.00 61 1017.7
20260507163134 58 291 14.8 26.1 0.00 0.00 0.00 63 1017.9
20260507162121 57 294 15.6 25.2 0.00 0.00 0.00 63 1017.8
20260507161127 57 268 15.6 25.2 0.00 0.00 0.00 65 1017.8
20260507160058 57 234 15.6 25.2 0.00 0.00 0.00 66 1018.1
20260507155058 56 298 14.8 24.3 0.00 0.00 0.00 68 1018.1
20260507154123 57 277 13.0 21.7 0.00 0.00 0.00 67 1018.2
20260507153105 56 284 12.2 21.7 0.00 0.00 0.00 67 1018.4
20260507152101 56 261 12.2 21.7 0.00 0.00 0.00 68 1018.2
20260507150014 56 285 13.0 22.6 0.00 0.00 0.00 68 1018.5
20260507145035 56 271 11.3 20.0 0.00 0.00 0.00 70 1018.6
20260507142846 55 288 11.3 19.1 0.00 0.00 0.00 72 1018.5
20260507141827 55 265 9.6 23.5 0.00 0.00 0.00 72 1018.2
20260507140757 55 241 12.2 23.5 0.00 0.00 0.00 73 1018.1
20260507135726 55 266 13.0 22.6 0.00 0.00 0.00 73 1018.0
20260507133608 55 252 13.0 21.7 0.00 0.00 0.00 73 1017.9
20260507131517 55 260 10.4 20.0 0.00 0.00 0.00 74 1017.9
20260507130538 55 257 9.6 18.2 0.00 0.00 0.00 74 1017.9
20260507125544 55 231 10.4 18.2 0.00 0.00 0.00 73 1017.9
20260507123418 56 248 6.1 12.2 0.00 0.00 0.00 73 1017.9
20260507122435 56 242 4.3 8.7 0.00 0.00 0.00 73 1017.8
20260507120248 56 286 3.5 10.4 0.00 0.00 0.00 72 1017.8
20260507115224 56 290 2.6 10.4 0.00 0.00 0.00 72 1017.8
20260507114240 56 228 3.5 7.0 0.00 0.00 0.00 73 1017.7
20260507113214 56 323 5.2 10.4 0.00 0.00 0.00 73 1017.7
20260507112234 56 275 4.3 13.9 0.00 0.00 0.00 73 1017.7
20260507111226 57 303 8.7 18.2 0.00 0.00 0.00 73 1017.6
20260507110226 57 267 8.7 18.2 0.00 0.00 0.00 73 1017.5
20260507105158 57 280 8.7 17.4 0.00 0.00 0.00 73 1017.4
20260507104141 57 273 10.4 17.4 0.00 0.00 0.00 72 1017.1
20260507103119 57 265 8.7 16.5 0.00 0.00 0.00 73 1017.0
20260507100949 58 303 9.6 16.5 0.00 0.00 0.00 73 1016.8
20260507095944 58 250 10.4 17.4 0.00 0.00 0.00 73 1016.9
20260507094917 58 275 10.4 17.4 0.00 0.00 0.00 72 1016.9
20260507093937 58 285 9.6 16.5 0.00 0.00 0.00 72 1017.0
20260507092950 59 273 9.6 16.5 0.00 0.00 0.00 72 1017.0
20260507091942 59 278 9.6 23.5 0.00 0.00 0.00 73 1017.1
20260507083549 59 289 8.7 24.3 0.00 0.00 0.00 73 1017.4
20260507082549 59 287 11.3 24.3 0.00 0.00 0.00 72 1017.4
20260507081549 60 287 12.2 20.0 0.00 0.00 0.00 71 1017.3
20260507080601 60 331 11.3 22.6 0.00 0.00 0.00 71 1017.1
20260507075602 60 292 11.3 22.6 0.00 0.00 0.00 71 1017.1
20260507073449 60 318 11.3 20.0 0.00 0.00 0.00 70 1017.0
20260507072424 60 307 11.3 20.0 0.00 0.00 0.00 70 1016.9
20260507071442 61 281 12.2 20.0 0.00 0.00 0.00 70 1016.9
20260507070449 61 298 13.0 24.3 0.00 0.00 0.00 69 1017.1
20260507065505 61 313 11.3 24.3 0.00 0.00 0.00 69 1017.1
20260507064522 62 289 9.6 20.9 0.00 0.00 0.00 68 1017.2
20260507063520 62 291 8.7 20.9 0.00 0.00 0.00 68 1017.3
20260507062536 62 259 9.6 21.7 0.00 0.00 0.00 67 1017.3
20260507061536 63 298 9.6 21.7 0.00 0.00 0.00 67 1017.2
20260507060558 63 298 10.4 16.5 0.00 0.00 0.00 67 1017.1
20260507055531 63 317 10.4 21.7 0.00 0.00 0.00 67 1017.0